Time,TemperatureF,DewpointF,PressureIn,WindDirection,WindDirectionDegrees,WindSpeedMPH,WindSpeedGustMPH,Humidity,HourlyPrecipIn,Conditions,Clouds,dailyrainin,SoftwareType,DateUTC
2017-06-24 00:01:00,82.2,78.3,30.07,ESE,105,0.0,4.0,88,0.00,,---,0.00,VWS V14.01,2017-06-24 04:01:00,
2017-06-24 00:06:00,82.2,78.6,30.07,ESE,105,1.0,1.0,89,0.00,,---,0.00,VWS V14.01,2017-06-24 04:06:00,
2017-06-24 00:11:00,82.2,78.6,30.07,ESE,105,0.0,1.0,89,0.00,,---,0.00,VWS V14.01,2017-06-24 04:11:00,
2017-06-24 00:16:00,82.2,78.6,30.07,ESE,103,0.0,3.0,89,0.00,,---,0.00,VWS V14.01,2017-06-24 04:16:00,
2017-06-24 00:21:00,82.2,78.6,30.07,ESE,103,0.0,3.0,89,0.00,,---,0.00,VWS V14.01,2017-06-24 04:21:00,
2017-06-24 00:26:00,82.2,78.6,30.07,ESE,103,1.0,3.0,89,0.00,,---,0.00,VWS V14.01,2017-06-24 04:26:00,
2017-06-24 00:32:00,82.2,78.6,30.07,ESE,103,0.0,3.0,89,0.00,,---,0.00,VWS V14.01,2017-06-24 04:32:00,
2017-06-24 00:37:00,82.0,78.4,30.07,ESE,103,0.0,0.0,89,0.00,,---,0.00,VWS V14.01,2017-06-24 04:37:00,
2017-06-24 00:42:00,82.0,78.4,30.07,ESE,103,0.0,0.0,89,0.00,,---,0.00,VWS V14.01,2017-06-24 04:42:00,
2017-06-24 00:47:00,82.0,78.4,30.07,ESE,103,2.0,2.0,89,0.00,,---,0.00,VWS V14.01,2017-06-24 04:47:00,
2017-06-24 00:52:00,82.0,78.4,30.07,ESE,102,2.0,7.0,89,0.00,,---,0.00,VWS V14.01,2017-06-24 04:52:00,
2017-06-24 00:57:00,82.0,78.4,30.07,ESE,103,0.0,7.0,89,0.00,,---,0.00,VWS V14.01,2017-06-24 04:57:00,
2017-06-24 01:02:00,82.0,78.4,30.07,ESE,103,2.0,7.0,89,0.00,,---,0.00,VWS V14.01,2017-06-24 05:02:00,
2017-06-24 01:07:00,82.0,78.8,30.07,ESE,103,0.0,1.0,90,0.00,,---,0.00,VWS V14.01,2017-06-24 05:07:00,
2017-06-24 01:12:00,82.0,78.8,30.07,ESE,104,1.0,6.0,90,0.00,,---,0.00,VWS V14.01,2017-06-24 05:12:00,
2017-06-24 01:17:00,81.8,78.6,30.07,ESE,105,1.0,6.0,90,0.00,,---,0.00,VWS V14.01,2017-06-24 05:17:00,
2017-06-24 01:23:00,81.8,78.6,30.07,ESE,105,0.0,6.0,90,0.00,,---,0.00,VWS V14.01,2017-06-24 05:23:00,
2017-06-24 01:28:00,81.8,78.6,30.07,ESE,105,0.0,6.0,90,0.00,,---,0.00,VWS V14.01,2017-06-24 05:28:00,
2017-06-24 01:33:00,81.6,78.1,30.07,ESE,105,0.0,6.0,89,0.00,,---,0.00,VWS V14.01,2017-06-24 05:33:00,
2017-06-24 01:38:00,81.6,78.1,30.06,ESE,105,2.0,3.0,89,0.00,,---,0.00,VWS V14.01,2017-06-24 05:38:00,
2017-06-24 01:43:00,81.6,78.1,30.06,ESE,105,0.0,3.0,89,0.00,,---,0.00,VWS V14.01,2017-06-24 05:43:00,
2017-06-24 01:48:00,81.6,78.1,30.06,ESE,105,0.0,3.0,89,0.00,,---,0.00,VWS V14.01,2017-06-24 05:48:00,
2017-06-24 01:53:00,81.4,77.8,30.06,ESE,105,0.0,3.0,89,0.00,,---,0.00,VWS V14.01,2017-06-24 05:53:00,
2017-06-24 01:58:00,81.4,77.8,30.06,ESE,105,0.0,3.0,89,0.00,,---,0.00,VWS V14.01,2017-06-24 05:58:00,
2017-06-24 02:03:00,81.4,77.8,30.05,ESE,105,3.0,3.0,89,0.00,,---,0.00,VWS V14.01,2017-06-24 06:03:00,
2017-06-24 02:08:00,81.4,77.8,30.05,ESE,105,0.0,1.0,89,0.00,,---,0.00,VWS V14.01,2017-06-24 06:08:00,
2017-06-24 02:13:00,81.4,78.2,30.05,ESE,105,0.0,1.0,90,0.00,,---,0.00,VWS V14.01,2017-06-24 06:13:00,
2017-06-24 02:18:00,81.4,78.2,30.05,ESE,105,0.0,3.0,90,0.00,,---,0.00,VWS V14.01,2017-06-24 06:18:00,
2017-06-24 02:23:00,81.2,78.0,30.05,ESE,105,0.0,3.0,90,0.00,,---,0.00,VWS V14.01,2017-06-24 06:23:00,
2017-06-24 02:29:00,81.2,78.0,30.05,ESE,105,0.0,3.0,90,0.00,,---,0.00,VWS V14.01,2017-06-24 06:29:00,
2017-06-24 02:34:00,81.2,78.0,30.04,ESE,105,0.0,3.0,90,0.00,,---,0.00,VWS V14.01,2017-06-24 06:34:00,
2017-06-24 02:39:00,81.2,78.3,30.04,ESE,105,0.0,3.0,91,0.00,,---,0.00,VWS V14.01,2017-06-24 06:39:00,
2017-06-24 02:44:00,81.1,78.2,30.04,ESE,105,0.0,3.0,91,0.00,,---,0.00,VWS V14.01,2017-06-24 06:44:00,
2017-06-24 02:49:00,81.1,78.2,30.04,ESE,105,0.0,3.0,91,0.00,,---,0.00,VWS V14.01,2017-06-24 06:49:00,
2017-06-24 02:54:00,81.1,78.2,30.04,ESE,105,0.0,3.0,91,0.00,,---,0.00,VWS V14.01,2017-06-24 06:54:00,
2017-06-24 02:59:00,81.1,78.2,30.04,ESE,105,0.0,3.0,91,0.00,,---,0.00,VWS V14.01,2017-06-24 06:59:00,
2017-06-24 03:04:00,81.1,78.2,30.04,ESE,105,0.0,3.0,91,0.00,,---,0.00,VWS V14.01,2017-06-24 07:04:00,
2017-06-24 03:09:00,81.1,78.2,30.04,ESE,105,0.0,0.0,91,0.00,,---,0.00,VWS V14.01,2017-06-24 07:09:00,
2017-06-24 03:14:00,81.1,78.2,30.04,ESE,105,0.0,0.0,91,0.00,,---,0.00,VWS V14.01,2017-06-24 07:14:00,
2017-06-24 03:19:00,81.1,78.2,30.04,ESE,105,0.0,0.0,91,0.00,,---,0.00,VWS V14.01,2017-06-24 07:19:00,
2017-06-24 03:24:00,81.1,78.2,30.04,ESE,105,0.0,0.0,91,0.00,,---,0.00,VWS V14.01,2017-06-24 07:24:00,
2017-06-24 03:30:00,81.1,78.2,30.04,ESE,105,0.0,0.0,91,0.00,,---,0.00,VWS V14.01,2017-06-24 07:30:00,
2017-06-24 03:35:00,81.1,78.2,30.04,ESE,105,0.0,0.0,91,0.00,,---,0.00,VWS V14.01,2017-06-24 07:35:00,
2017-06-24 03:40:00,81.1,78.6,30.04,ESE,105,0.0,0.0,92,0.00,,---,0.00,VWS V14.01,2017-06-24 07:40:00,
2017-06-24 03:45:00,81.1,78.6,30.04,ESE,105,0.0,0.0,92,0.00,,---,0.00,VWS V14.01,2017-06-24 07:45:00,
2017-06-24 03:50:00,81.1,78.6,30.03,ESE,105,0.0,0.0,92,0.00,,---,0.00,VWS V14.01,2017-06-24 07:50:00,
2017-06-24 03:55:00,81.1,78.6,30.03,ESE,105,0.0,0.0,92,0.00,,---,0.00,VWS V14.01,2017-06-24 07:55:00,
2017-06-24 04:00:00,81.1,78.6,30.03,ESE,105,0.0,0.0,92,0.00,,---,0.00,VWS V14.01,2017-06-24 08:00:00,
2017-06-24 04:05:00,81.1,78.6,30.03,ESE,105,0.0,0.0,92,0.00,,---,0.00,VWS V14.01,2017-06-24 08:05:00,
2017-06-24 04:10:00,81.1,78.6,30.03,ESE,105,0.0,0.0,92,0.00,,---,0.00,VWS V14.01,2017-06-24 08:10:00,
2017-06-24 04:15:00,81.1,78.6,30.03,ESE,105,0.0,0.0,92,0.00,,---,0.00,VWS V14.01,2017-06-24 08:15:00,
2017-06-24 04:20:00,81.1,78.6,30.03,ESE,105,0.0,0.0,92,0.00,,---,0.00,VWS V14.01,2017-06-24 08:20:00,
2017-06-24 04:25:00,80.9,78.4,30.03,ESE,105,0.0,0.0,92,0.00,,---,0.00,VWS V14.01,2017-06-24 08:25:00,
2017-06-24 04:31:00,80.9,78.7,30.03,ESE,105,0.0,0.0,93,0.00,,---,0.00,VWS V14.01,2017-06-24 08:31:00,
2017-06-24 04:36:00,80.9,78.7,30.03,ESE,105,0.0,0.0,93,0.00,,---,0.00,VWS V14.01,2017-06-24 08:36:00,
2017-06-24 04:41:00,80.9,78.7,30.03,ESE,105,0.0,0.0,93,0.00,,---,0.00,VWS V14.01,2017-06-24 08:41:00,
2017-06-24 04:46:00,80.9,78.7,30.03,ESE,105,0.0,0.0,93,0.00,,---,0.00,VWS V14.01,2017-06-24 08:46:00,
2017-06-24 04:51:00,80.7,78.8,30.02,ESE,105,0.0,0.0,94,0.00,,---,0.00,VWS V14.01,2017-06-24 08:51:00,
2017-06-24 04:55:00,80.7,78.8,30.02,ESE,105,0.0,0.0,94,0.00,,---,0.00,VWS V14.01,2017-06-24 08:55:00,
2017-06-24 05:00:00,80.7,78.8,30.02,ESE,105,0.0,0.0,94,0.00,,---,0.00,VWS V14.01,2017-06-24 09:00:00,
2017-06-24 05:05:00,80.7,79.1,30.02,ESE,105,0.0,0.0,95,0.00,,---,0.00,VWS V14.01,2017-06-24 09:05:00,
2017-06-24 05:10:00,80.7,79.1,30.02,ESE,105,0.0,0.0,95,0.00,,---,0.00,VWS V14.01,2017-06-24 09:10:00,
2017-06-24 05:13:00,80.5,78.9,30.02,ESE,105,0.0,0.0,95,0.00,,---,0.00,VWS V14.01,2017-06-24 09:13:00,
2017-06-24 05:18:00,80.5,78.9,30.02,ESE,105,0.0,0.0,95,0.00,,---,0.00,VWS V14.01,2017-06-24 09:18:00,
2017-06-24 05:24:00,80.5,78.9,30.02,ESE,105,0.0,0.0,95,0.00,,---,0.00,VWS V14.01,2017-06-24 09:24:00,
2017-06-24 05:29:00,80.7,79.1,30.02,ESE,105,0.0,0.0,95,0.00,,---,0.00,VWS V14.01,2017-06-24 09:29:00,
2017-06-24 05:34:00,80.7,79.1,30.02,ESE,105,0.0,4.0,95,0.00,,---,0.00,VWS V14.01,2017-06-24 09:34:00,
2017-06-24 05:39:00,80.7,78.8,30.02,ESE,105,0.0,5.0,94,0.00,,---,0.00,VWS V14.01,2017-06-24 09:39:00,
2017-06-24 05:44:00,80.9,78.7,30.02,ESE,105,1.0,5.0,93,0.00,,---,0.00,VWS V14.01,2017-06-24 09:44:00,
2017-06-24 05:49:00,80.9,78.4,30.03,ESE,105,0.0,5.0,92,0.00,,---,0.00,VWS V14.01,2017-06-24 09:49:00,
2017-06-24 05:54:00,80.9,78.4,30.03,ESE,105,0.0,5.0,92,0.00,,---,0.00,VWS V14.01,2017-06-24 09:54:00,
2017-06-24 05:59:00,81.1,78.2,30.03,ESE,105,0.0,5.0,91,0.00,,---,0.00,VWS V14.01,2017-06-24 09:59:00,
2017-06-24 06:04:00,81.1,78.2,30.03,ESE,105,0.0,5.0,91,0.00,,---,0.00,VWS V14.01,2017-06-24 10:04:00,
2017-06-24 06:09:00,81.1,78.2,30.03,ESE,105,0.0,0.0,91,0.00,,---,0.00,VWS V14.01,2017-06-24 10:09:00,
2017-06-24 06:15:00,81.1,77.9,30.03,ESE,105,0.0,0.0,90,0.00,,---,0.00,VWS V14.01,2017-06-24 10:15:00,
2017-06-24 06:20:00,81.1,78.2,30.04,ESE,105,0.0,2.0,91,0.00,,---,0.00,VWS V14.01,2017-06-24 10:20:00,
2017-06-24 06:25:00,80.9,78.0,30.04,ESE,105,0.0,2.0,91,0.00,,---,0.00,VWS V14.01,2017-06-24 10:25:00,
2017-06-24 06:30:00,80.9,78.0,30.04,ESE,105,0.0,2.0,91,0.00,,---,0.00,VWS V14.01,2017-06-24 10:30:00,
2017-06-24 06:35:00,80.7,77.8,30.04,ESE,105,0.0,0.0,91,0.00,,---,0.00,VWS V14.01,2017-06-24 10:35:00,
2017-06-24 06:40:00,80.7,77.8,30.04,ESE,105,0.0,0.0,91,0.00,,---,0.00,VWS V14.01,2017-06-24 10:40:00,
2017-06-24 06:45:00,80.5,77.6,30.04,ESE,105,0.0,0.0,91,0.00,,---,0.00,VWS V14.01,2017-06-24 10:45:00,
2017-06-24 06:50:00,80.5,77.6,30.04,ESE,105,0.0,0.0,91,0.00,,---,0.00,VWS V14.01,2017-06-24 10:50:00,
2017-06-24 06:55:00,80.3,77.8,30.04,ESE,105,0.0,0.0,92,0.00,,---,0.00,VWS V14.01,2017-06-24 10:55:00,
2017-06-24 07:00:00,80.3,77.8,30.04,ESE,105,0.0,0.0,92,0.00,,---,0.00,VWS V14.01,2017-06-24 11:00:00,
2017-06-24 07:05:00,80.1,77.6,30.05,ESE,105,0.0,0.0,92,0.00,,---,0.00,VWS V14.01,2017-06-24 11:05:00,
2017-06-24 07:11:00,80.1,77.6,30.05,ESE,105,0.0,0.0,92,0.00,,---,0.00,VWS V14.01,2017-06-24 11:11:00,
2017-06-24 07:16:00,80.1,77.6,30.05,ESE,105,0.0,0.0,92,0.00,,---,0.00,VWS V14.01,2017-06-24 11:16:00,
2017-06-24 07:21:00,79.9,77.4,30.05,ESE,105,0.0,0.0,92,0.00,,---,0.00,VWS V14.01,2017-06-24 11:21:00,
2017-06-24 07:26:00,79.9,77.7,30.05,ESE,105,0.0,0.0,93,0.00,,---,0.00,VWS V14.01,2017-06-24 11:26:00,
2017-06-24 07:31:00,79.9,77.7,30.05,ESE,105,0.0,0.0,93,0.00,,---,0.00,VWS V14.01,2017-06-24 11:31:00,
2017-06-24 07:36:00,80.1,77.9,30.06,ESE,105,0.0,0.0,93,0.00,,---,0.00,VWS V14.01,2017-06-24 11:36:00,
2017-06-24 07:41:00,80.1,77.9,30.06,ESE,105,0.0,0.0,93,0.00,,---,0.00,VWS V14.01,2017-06-24 11:41:00,
2017-06-24 07:46:00,80.3,78.1,30.06,ESE,105,0.0,0.0,93,0.00,,---,0.00,VWS V14.01,2017-06-24 11:46:00,
2017-06-24 07:51:00,80.3,78.1,30.06,ESE,105,0.0,0.0,93,0.00,,---,0.00,VWS V14.01,2017-06-24 11:51:00,
2017-06-24 07:56:00,80.5,78.0,30.06,ESE,105,0.0,0.0,92,0.00,,---,0.00,VWS V14.01,2017-06-24 11:56:00,
2017-06-24 08:01:00,80.7,78.2,30.06,ESE,105,0.0,0.0,92,0.00,,---,0.00,VWS V14.01,2017-06-24 12:01:00,
2017-06-24 08:06:00,80.9,78.4,30.07,ESE,105,0.0,0.0,92,0.00,,---,0.00,VWS V14.01,2017-06-24 12:06:00,
2017-06-24 08:12:00,81.1,78.6,30.07,ESE,105,0.0,0.0,92,0.00,,---,0.00,VWS V14.01,2017-06-24 12:12:00,
2017-06-24 08:17:00,81.4,78.5,30.07,ESE,105,0.0,1.0,91,0.00,,---,0.00,VWS V14.01,2017-06-24 12:17:00,
2017-06-24 08:22:00,81.8,78.6,30.07,ESE,105,0.0,3.0,90,0.00,,---,0.00,VWS V14.01,2017-06-24 12:22:00,
2017-06-24 08:27:00,82.2,78.6,30.07,ESE,106,5.0,5.0,89,0.00,,---,0.00,VWS V14.01,2017-06-24 12:27:00,
2017-06-24 08:32:00,82.4,78.5,30.07,ESE,106,1.0,5.0,88,0.00,,---,0.00,VWS V14.01,2017-06-24 12:32:00,
2017-06-24 08:37:00,82.8,78.5,30.07,ESE,106,0.0,2.0,87,0.00,,---,0.00,VWS V14.01,2017-06-24 12:37:00,
2017-06-24 08:42:00,83.0,78.0,30.07,ESE,106,1.0,2.0,85,0.00,,---,0.00,VWS V14.01,2017-06-24 12:42:00,
2017-06-24 08:47:00,83.2,78.2,30.07,ESE,106,2.0,2.0,85,0.00,,---,0.00,VWS V14.01,2017-06-24 12:47:00,
2017-06-24 08:52:00,83.6,77.9,30.07,ESE,106,0.0,5.0,83,0.00,,---,0.00,VWS V14.01,2017-06-24 12:52:00,
2017-06-24 08:57:00,84.0,78.3,30.07,ESE,107,0.0,5.0,83,0.00,,---,0.00,VWS V14.01,2017-06-24 12:57:00,
2017-06-24 09:02:00,84.0,77.9,30.07,ESE,107,0.0,5.0,82,0.00,,---,0.00,VWS V14.01,2017-06-24 13:02:00,
2017-06-24 09:07:00,84.0,77.5,30.07,ESE,107,0.0,2.0,81,0.00,,---,0.00,VWS V14.01,2017-06-24 13:07:00,
2017-06-24 09:13:00,84.0,77.5,30.07,ESE,104,0.0,2.0,81,0.00,,---,0.00,VWS V14.01,2017-06-24 13:13:00,
2017-06-24 09:18:00,84.0,77.5,30.07,ESE,107,1.0,2.0,81,0.00,,---,0.00,VWS V14.01,2017-06-24 13:18:00,
2017-06-24 09:23:00,84.3,77.5,30.07,ESE,107,1.0,2.0,80,0.00,,---,0.00,VWS V14.01,2017-06-24 13:23:00,
2017-06-24 09:28:00,84.9,77.7,30.07,ESE,109,0.0,4.0,79,0.00,,---,0.00,VWS V14.01,2017-06-24 13:28:00,
2017-06-24 09:33:00,85.3,77.7,30.07,ESE,109,0.0,4.0,78,0.00,,---,0.00,VWS V14.01,2017-06-24 13:33:00,
2017-06-24 09:38:00,85.7,76.9,30.07,ESE,109,0.0,6.0,75,0.00,,---,0.00,VWS V14.01,2017-06-24 13:38:00,
2017-06-24 09:43:00,86.1,76.8,30.07,ESE,114,8.0,8.0,74,0.00,,---,0.00,VWS V14.01,2017-06-24 13:43:00,
2017-06-24 09:48:00,86.3,75.8,30.08,ESE,114,1.0,8.0,71,0.00,,---,0.00,VWS V14.01,2017-06-24 13:48:00,
2017-06-24 09:53:00,86.5,76.8,30.08,ESE,115,1.0,8.0,73,0.00,,---,0.00,VWS V14.01,2017-06-24 13:53:00,
2017-06-24 09:58:00,86.5,76.4,30.08,ESE,117,0.0,8.0,72,0.00,,---,0.00,VWS V14.01,2017-06-24 13:58:00,
2017-06-24 10:04:00,87.0,76.9,30.08,ESE,117,0.0,8.0,72,0.00,,---,0.00,VWS V14.01,2017-06-24 14:04:00,
2017-06-24 10:09:00,87.2,75.8,30.08,ESE,117,0.0,3.0,69,0.00,,---,0.00,VWS V14.01,2017-06-24 14:09:00,
2017-06-24 10:14:00,87.6,75.7,30.08,ESE,116,1.0,3.0,68,0.00,,---,0.00,VWS V14.01,2017-06-24 14:14:00,
2017-06-24 10:19:00,87.8,75.9,30.09,ESE,117,0.0,4.0,68,0.00,,---,0.00,VWS V14.01,2017-06-24 14:19:00,
2017-06-24 10:24:00,87.8,76.4,30.09,ESE,117,0.0,4.0,69,0.00,,---,0.00,VWS V14.01,2017-06-24 14:24:00,
2017-06-24 10:29:00,87.8,75.9,30.09,ESE,118,0.0,5.0,68,0.00,,---,0.00,VWS V14.01,2017-06-24 14:29:00,
2017-06-24 10:34:00,87.8,75.9,30.09,ESE,119,0.0,5.0,68,0.00,,---,0.00,VWS V14.01,2017-06-24 14:34:00,
2017-06-24 10:39:00,87.6,76.2,30.09,ESE,119,0.0,3.0,69,0.00,,---,0.00,VWS V14.01,2017-06-24 14:39:00,
2017-06-24 10:44:00,87.6,76.2,30.09,ESE,120,0.0,3.0,69,0.00,,---,0.00,VWS V14.01,2017-06-24 14:44:00,
2017-06-24 10:49:00,87.6,76.6,30.10,ESE,120,0.0,3.0,70,0.00,,---,0.00,VWS V14.01,2017-06-24 14:49:00,
2017-06-24 10:54:00,87.8,76.8,30.10,ESE,120,0.0,3.0,70,0.00,,---,0.00,VWS V14.01,2017-06-24 14:54:00,
2017-06-24 11:00:00,88.0,76.6,30.10,ESE,119,3.0,5.0,69,0.00,,---,0.00,VWS V14.01,2017-06-24 15:00:00,
2017-06-24 11:05:00,88.6,76.2,30.10,ESE,117,0.0,2.0,67,0.00,,---,0.00,VWS V14.01,2017-06-24 15:05:00,
2017-06-24 11:10:00,89.3,76.5,30.10,SE,124,3.0,4.0,66,0.00,,---,0.00,VWS V14.01,2017-06-24 15:10:00,
2017-06-24 11:15:00,89.7,76.4,30.10,SE,125,1.0,4.0,65,0.00,,---,0.00,VWS V14.01,2017-06-24 15:15:00,
2017-06-24 11:20:00,90.1,76.3,30.10,SE,125,0.0,4.0,64,0.00,,---,0.00,VWS V14.01,2017-06-24 15:20:00,
2017-06-24 11:25:00,90.3,76.9,30.10,SE,126,1.0,4.0,65,0.00,,---,0.00,VWS V14.01,2017-06-24 15:25:00,
2017-06-24 11:30:00,90.5,75.7,30.10,SE,126,1.0,4.0,62,0.00,,---,0.00,VWS V14.01,2017-06-24 15:30:00,
2017-06-24 11:35:00,90.7,75.9,30.11,SE,124,2.0,2.0,62,0.00,,---,0.00,VWS V14.01,2017-06-24 15:35:00,
2017-06-24 11:40:00,90.7,76.8,30.11,SE,125,0.0,3.0,64,0.00,,---,0.00,VWS V14.01,2017-06-24 15:40:00,
2017-06-24 11:45:00,90.5,76.2,30.11,SE,126,0.0,4.0,63,0.00,,---,0.00,VWS V14.01,2017-06-24 15:45:00,
2017-06-24 11:51:00,90.5,76.7,30.12,SE,125,5.0,5.0,64,0.00,,---,0.00,VWS V14.01,2017-06-24 15:51:00,
2017-06-24 11:56:00,91.2,75.4,30.12,East,97,5.0,5.0,60,0.00,,---,0.00,VWS V14.01,2017-06-24 15:56:00,
2017-06-24 12:01:00,91.6,75.2,30.12,East,92,1.0,6.0,59,0.00,,---,0.00,VWS V14.01,2017-06-24 16:01:00,
2017-06-24 12:06:00,92.1,74.7,30.12,ESE,113,2.0,10.0,57,0.00,,---,0.00,VWS V14.01,2017-06-24 16:06:00,
2017-06-24 12:11:00,92.3,75.4,30.12,ESE,107,0.0,10.0,58,0.00,,---,0.00,VWS V14.01,2017-06-24 16:11:00,
2017-06-24 12:16:00,92.7,76.8,30.12,ESE,109,0.0,10.0,60,0.00,,---,0.00,VWS V14.01,2017-06-24 16:16:00,
2017-06-24 12:21:00,92.7,77.3,30.11,ESE,109,1.0,10.0,61,0.00,,---,0.00,VWS V14.01,2017-06-24 16:21:00,
2017-06-24 12:26:00,92.5,76.6,30.11,ESE,109,2.0,10.0,60,0.00,,---,0.00,VWS V14.01,2017-06-24 16:26:00,
2017-06-24 12:31:00,92.5,76.6,30.11,ESE,110,4.0,10.0,60,0.00,,---,0.00,VWS V14.01,2017-06-24 16:31:00,
2017-06-24 12:36:00,91.6,76.2,30.12,SE,138,6.0,6.0,61,0.00,,---,0.00,VWS V14.01,2017-06-24 16:36:00,
2017-06-24 12:41:00,91.8,76.4,30.12,ESE,112,5.0,6.0,61,0.00,,---,0.00,VWS V14.01,2017-06-24 16:41:00,
2017-06-24 12:46:00,92.3,77.4,30.12,ESE,114,0.0,6.0,62,0.00,,---,0.00,VWS V14.01,2017-06-24 16:46:00,
2017-06-24 12:52:00,92.5,76.6,30.11,ESE,117,2.0,6.0,60,0.00,,---,0.00,VWS V14.01,2017-06-24 16:52:00,
2017-06-24 12:57:00,92.5,77.6,30.11,ESE,117,0.0,6.0,62,0.00,,---,0.00,VWS V14.01,2017-06-24 16:57:00,
2017-06-24 13:02:00,92.9,77.0,30.11,ESE,113,2.0,6.0,60,0.00,,---,0.00,VWS V14.01,2017-06-24 17:02:00,
2017-06-24 13:07:00,93.6,75.6,30.11,ESE,107,1.0,6.0,56,0.00,,---,0.00,VWS V14.01,2017-06-24 17:07:00,
2017-06-24 13:12:00,94.0,76.5,30.11,South,186,1.0,6.0,57,0.00,,---,0.00,VWS V14.01,2017-06-24 17:12:00,
2017-06-24 13:17:00,94.3,76.2,30.11,South,185,2.0,6.0,56,0.00,,---,0.00,VWS V14.01,2017-06-24 17:17:00,
2017-06-24 13:22:00,94.0,75.9,30.10,South,185,3.0,6.0,56,0.00,,---,0.00,VWS V14.01,2017-06-24 17:22:00,
2017-06-24 13:27:00,94.3,77.3,30.10,SE,124,3.0,7.0,58,0.00,,---,0.00,VWS V14.01,2017-06-24 17:27:00,
2017-06-24 13:32:00,94.3,75.7,30.10,ESE,118,0.0,7.0,55,0.00,,---,0.00,VWS V14.01,2017-06-24 17:32:00,
2017-06-24 13:37:00,94.3,76.7,30.10,SE,137,1.0,3.0,57,0.00,,---,0.00,VWS V14.01,2017-06-24 17:37:00,
2017-06-24 13:42:00,94.3,76.2,30.10,SE,134,0.0,5.0,56,0.00,,---,0.00,VWS V14.01,2017-06-24 17:42:00,
2017-06-24 13:48:00,94.3,78.3,30.10,SE,138,2.0,5.0,60,0.00,,---,0.00,VWS V14.01,2017-06-24 17:48:00,
2017-06-24 13:53:00,94.5,77.4,30.10,ESE,123,3.0,5.0,58,0.00,,---,0.00,VWS V14.01,2017-06-24 17:53:00,
2017-06-24 13:58:00,94.7,77.1,30.10,ESE,115,2.0,6.0,57,0.00,,---,0.00,VWS V14.01,2017-06-24 17:58:00,
2017-06-24 14:03:00,94.9,76.2,30.10,ESE,113,5.0,6.0,55,0.00,,---,0.00,VWS V14.01,2017-06-24 18:03:00,
2017-06-24 14:08:00,94.7,74.9,30.10,ESE,103,1.0,5.0,53,0.00,,---,0.00,VWS V14.01,2017-06-24 18:08:00,
2017-06-24 14:13:00,94.5,77.4,30.10,ESE,121,1.0,12.0,58,0.00,,---,0.00,VWS V14.01,2017-06-24 18:13:00,
2017-06-24 14:19:00,94.5,74.2,30.10,ESE,112,4.0,12.0,52,0.00,,---,0.00,VWS V14.01,2017-06-24 18:19:00,
2017-06-24 14:24:00,94.7,75.5,30.10,East,101,4.0,12.0,54,0.00,,---,0.00,VWS V14.01,2017-06-24 18:24:00,
2017-06-24 14:29:00,95.1,75.8,30.10,East,87,7.0,12.0,54,0.00,,---,0.00,VWS V14.01,2017-06-24 18:29:00,
2017-06-24 14:34:00,94.9,75.7,30.09,ESE,102,3.0,12.0,54,0.00,,---,0.00,VWS V14.01,2017-06-24 18:34:00,
2017-06-24 14:39:00,94.5,75.8,30.09,ESE,107,3.0,8.0,55,0.00,,---,0.00,VWS V14.01,2017-06-24 18:39:00,
2017-06-24 14:44:00,94.9,75.7,30.09,SE,136,4.0,8.0,54,0.00,,---,0.00,VWS V14.01,2017-06-24 18:44:00,
2017-06-24 14:49:00,94.9,76.2,30.09,SE,130,0.0,8.0,55,0.00,,---,0.00,VWS V14.01,2017-06-24 18:49:00,
2017-06-24 14:54:00,95.1,76.4,30.09,SE,131,1.0,8.0,55,0.00,,---,0.00,VWS V14.01,2017-06-24 18:54:00,
2017-06-24 14:59:00,95.1,75.8,30.09,ESE,109,4.0,8.0,54,0.00,,---,0.00,VWS V14.01,2017-06-24 18:59:00,
2017-06-24 15:04:00,95.1,75.3,30.09,SE,132,7.0,8.0,53,0.00,,---,0.00,VWS V14.01,2017-06-24 19:04:00,
2017-06-24 15:09:00,94.9,75.1,30.09,SE,127,4.0,7.0,53,0.00,,---,0.00,VWS V14.01,2017-06-24 19:09:00,
2017-06-24 15:14:00,95.1,76.4,30.09,ESE,108,5.0,7.0,55,0.00,,---,0.00,VWS V14.01,2017-06-24 19:14:00,
2017-06-24 15:19:00,95.6,74.6,30.08,SE,132,0.0,7.0,51,0.00,,---,0.00,VWS V14.01,2017-06-24 19:19:00,
2017-06-24 15:25:00,95.9,74.3,30.08,ESE,115,4.0,7.0,50,0.00,,---,0.00,VWS V14.01,2017-06-24 19:25:00,
2017-06-24 15:30:00,95.4,73.8,30.08,East,88,2.0,9.0,50,0.00,,---,0.00,VWS V14.01,2017-06-24 19:30:00,
2017-06-24 15:35:00,94.9,74.5,30.08,East,96,3.0,3.0,52,0.00,,---,0.00,VWS V14.01,2017-06-24 19:35:00,
2017-06-24 15:40:00,95.4,75.6,30.08,East,92,1.0,6.0,53,0.00,,---,0.00,VWS V14.01,2017-06-24 19:40:00,
2017-06-24 15:45:00,95.9,74.3,30.08,SE,146,9.0,9.0,50,0.00,,---,0.00,VWS V14.01,2017-06-24 19:45:00,
2017-06-24 15:50:00,95.9,75.4,30.08,SE,132,4.0,9.0,52,0.00,,---,0.00,VWS V14.01,2017-06-24 19:50:00,
2017-06-24 15:55:00,95.6,74.0,30.08,East,86,6.0,9.0,50,0.00,,---,0.00,VWS V14.01,2017-06-24 19:55:00,
2017-06-24 16:00:00,95.4,74.4,30.08,ESE,112,0.0,9.0,51,0.00,,---,0.00,VWS V14.01,2017-06-24 20:00:00,
2017-06-24 16:05:00,95.6,75.2,30.07,ESE,105,7.0,7.0,52,0.00,,---,0.00,VWS V14.01,2017-06-24 20:05:00,
2017-06-24 16:10:00,95.6,73.4,30.07,ESE,121,11.0,11.0,49,0.00,,---,0.00,VWS V14.01,2017-06-24 20:10:00,
2017-06-24 16:16:00,95.4,73.8,30.07,ESE,123,4.0,11.0,50,0.00,,---,0.00,VWS V14.01,2017-06-24 20:16:00,
2017-06-24 16:21:00,95.6,75.8,30.07,SE,137,4.0,11.0,53,0.00,,---,0.00,VWS V14.01,2017-06-24 20:21:00,
2017-06-24 16:26:00,95.6,75.2,30.07,SE,140,2.0,11.0,52,0.00,,---,0.00,VWS V14.01,2017-06-24 20:26:00,
2017-06-24 16:31:00,95.9,75.4,30.07,SSE,150,0.0,11.0,52,0.00,,---,0.00,VWS V14.01,2017-06-24 20:31:00,
2017-06-24 16:36:00,95.9,73.1,30.07,ESE,109,2.0,5.0,48,0.00,,---,0.00,VWS V14.01,2017-06-24 20:36:00,
2017-06-24 16:41:00,95.6,74.6,30.07,SE,130,3.0,7.0,51,0.00,,---,0.00,VWS V14.01,2017-06-24 20:41:00,
2017-06-24 16:46:00,95.1,74.1,30.07,East,82,4.0,11.0,51,0.00,,---,0.00,VWS V14.01,2017-06-24 20:46:00,
2017-06-24 16:51:00,95.1,74.1,30.06,SE,142,1.0,11.0,51,0.00,,---,0.00,VWS V14.01,2017-06-24 20:51:00,
2017-06-24 16:56:00,94.9,73.4,30.06,ENE,76,3.0,11.0,50,0.00,,---,0.00,VWS V14.01,2017-06-24 20:56:00,
2017-06-24 17:01:00,94.5,74.7,30.06,East,97,2.0,11.0,53,0.00,,---,0.00,VWS V14.01,2017-06-24 21:01:00,
2017-06-24 17:06:00,94.5,74.7,30.06,ESE,114,6.0,6.0,53,0.00,,---,0.00,VWS V14.01,2017-06-24 21:06:00,
2017-06-24 17:12:00,94.3,74.6,30.06,ESE,111,1.0,6.0,53,0.00,,---,0.00,VWS V14.01,2017-06-24 21:12:00,
2017-06-24 17:17:00,94.5,74.7,30.06,ESE,123,3.0,7.0,53,0.00,,---,0.00,VWS V14.01,2017-06-24 21:17:00,
2017-06-24 17:22:00,94.5,74.7,30.06,East,99,1.0,7.0,53,0.00,,---,0.00,VWS V14.01,2017-06-24 21:22:00,
2017-06-24 17:27:00,94.5,74.2,30.06,East,88,5.0,9.0,52,0.00,,---,0.00,VWS V14.01,2017-06-24 21:27:00,
2017-06-24 17:30:00,94.5,75.8,30.06,SE,142,4.0,9.0,55,0.00,,---,0.00,VWS V14.01,2017-06-24 21:30:00,
2017-06-24 17:35:00,93.8,73.5,30.06,East,90,5.0,5.0,52,0.00,,---,0.00,VWS V14.01,2017-06-24 21:35:00,
2017-06-24 17:40:00,93.8,75.2,30.06,ESE,119,1.0,7.0,55,0.00,,---,0.00,VWS V14.01,2017-06-24 21:40:00,
2017-06-24 17:45:00,93.4,74.3,30.06,ESE,106,1.0,9.0,54,0.00,,---,0.00,VWS V14.01,2017-06-24 21:45:00,
2017-06-24 17:50:00,93.2,74.1,30.06,East,86,3.0,10.0,54,0.00,,---,0.00,VWS V14.01,2017-06-24 21:50:00,
2017-06-24 17:55:00,93.2,75.2,30.06,SE,136,2.0,10.0,56,0.00,,---,0.00,VWS V14.01,2017-06-24 21:55:00,
2017-06-24 18:00:00,93.2,74.1,30.06,ESE,105,5.0,10.0,54,0.00,,---,0.00,VWS V14.01,2017-06-24 22:00:00,
2017-06-24 18:05:00,92.9,75.4,30.05,ENE,77,4.0,4.0,57,0.00,,---,0.00,VWS V14.01,2017-06-24 22:05:00,
2017-06-24 18:11:00,92.9,75.4,30.05,ESE,107,0.0,4.0,57,0.00,,---,0.00,VWS V14.01,2017-06-24 22:11:00,
2017-06-24 18:16:00,93.2,74.1,30.05,ESE,115,4.0,6.0,54,0.00,,---,0.00,VWS V14.01,2017-06-24 22:16:00,
2017-06-24 18:21:00,93.2,74.1,30.05,East,91,3.0,6.0,54,0.00,,---,0.00,VWS V14.01,2017-06-24 22:21:00,
2017-06-24 18:26:00,92.9,74.9,30.05,ESE,119,4.0,6.0,56,0.00,,---,0.00,VWS V14.01,2017-06-24 22:26:00,
2017-06-24 18:31:00,92.5,74.5,30.05,ESE,119,1.0,10.0,56,0.00,,---,0.00,VWS V14.01,2017-06-24 22:31:00,
2017-06-24 18:36:00,92.3,74.3,30.06,ESE,115,5.0,5.0,56,0.00,,---,0.00,VWS V14.01,2017-06-24 22:36:00,
2017-06-24 18:41:00,92.1,75.2,30.06,ESE,108,4.0,6.0,58,0.00,,---,0.00,VWS V14.01,2017-06-24 22:41:00,
2017-06-24 18:46:00,91.6,75.2,30.06,ESE,109,3.0,9.0,59,0.00,,---,0.00,VWS V14.01,2017-06-24 22:46:00,
2017-06-24 18:51:00,91.4,75.1,30.06,ESE,107,1.0,9.0,59,0.00,,---,0.00,VWS V14.01,2017-06-24 22:51:00,
2017-06-24 18:56:00,91.2,75.4,30.06,ESE,121,4.0,9.0,60,0.00,,---,0.00,VWS V14.01,2017-06-24 22:56:00,
2017-06-24 19:01:00,90.7,75.4,30.06,ESE,104,5.0,9.0,61,0.00,,---,0.00,VWS V14.01,2017-06-24 23:01:00,
2017-06-24 19:07:00,90.3,75.5,30.06,ESE,118,0.0,2.0,62,0.00,,---,0.00,VWS V14.01,2017-06-24 23:07:00,
2017-06-24 19:12:00,90.3,75.5,30.06,ESE,105,1.0,4.0,62,0.00,,---,0.00,VWS V14.01,2017-06-24 23:12:00,
2017-06-24 19:17:00,90.1,75.3,30.06,ESE,110,3.0,4.0,62,0.00,,---,0.00,VWS V14.01,2017-06-24 23:17:00,
2017-06-24 19:22:00,89.5,75.2,30.06,ESE,111,2.0,5.0,63,0.00,,---,0.00,VWS V14.01,2017-06-24 23:22:00,
2017-06-24 19:27:00,89.3,74.6,30.06,ESE,110,2.0,6.0,62,0.00,,---,0.00,VWS V14.01,2017-06-24 23:27:00,
2017-06-24 19:32:00,88.6,74.4,30.06,East,100,3.0,7.0,63,0.00,,---,0.00,VWS V14.01,2017-06-24 23:32:00,
2017-06-24 19:37:00,88.2,75.0,30.07,East,101,0.0,0.0,65,0.00,,---,0.00,VWS V14.01,2017-06-24 23:37:00,
2017-06-24 19:42:00,88.0,75.2,30.07,East,101,0.0,1.0,66,0.00,,---,0.00,VWS V14.01,2017-06-24 23:42:00,
2017-06-24 19:47:00,87.6,74.8,30.07,East,101,2.0,2.0,66,0.00,,---,0.00,VWS V14.01,2017-06-24 23:47:00,
2017-06-24 19:52:00,87.4,75.1,30.07,SSE,168,2.0,4.0,67,0.00,,---,0.00,VWS V14.01,2017-06-24 23:52:00,
2017-06-24 19:57:00,87.0,75.2,30.07,SE,133,0.0,4.0,68,0.00,,---,0.00,VWS V14.01,2017-06-24 23:57:00,
2017-06-24 20:02:00,86.5,75.1,30.07,SE,130,0.0,4.0,69,0.00,,---,0.00,VWS V14.01,2017-06-25 00:02:00,
2017-06-24 20:08:00,86.3,75.8,30.08,SE,128,0.0,5.0,71,0.00,,---,0.00,VWS V14.01,2017-06-25 00:08:00,
2017-06-24 20:13:00,85.9,76.2,30.08,ESE,116,4.0,5.0,73,0.00,,---,0.00,VWS V14.01,2017-06-25 00:13:00,
2017-06-24 20:18:00,85.7,76.5,30.08,ESE,117,0.0,5.0,74,0.00,,---,0.00,VWS V14.01,2017-06-25 00:18:00,
2017-06-24 20:23:00,85.5,76.7,30.08,ESE,110,0.0,5.0,75,0.00,,---,0.00,VWS V14.01,2017-06-25 00:23:00,
2017-06-24 20:28:00,85.3,76.5,30.08,ESE,106,0.0,5.0,75,0.00,,---,0.00,VWS V14.01,2017-06-25 00:28:00,
2017-06-24 20:33:00,85.1,76.7,30.09,ESE,108,3.0,5.0,76,0.00,,---,0.00,VWS V14.01,2017-06-25 00:33:00,
2017-06-24 20:38:00,84.7,76.7,30.09,ESE,107,2.0,3.0,77,0.00,,---,0.00,VWS V14.01,2017-06-25 00:38:00,
2017-06-24 20:43:00,84.5,76.5,30.09,ESE,105,4.0,5.0,77,0.00,,---,0.00,VWS V14.01,2017-06-25 00:43:00,
2017-06-24 20:48:00,84.3,76.7,30.09,East,80,7.0,7.0,78,0.00,,---,0.00,VWS V14.01,2017-06-25 00:48:00,
2017-06-24 20:53:00,84.1,76.9,30.09,East,92,3.0,7.0,79,0.00,,---,0.00,VWS V14.01,2017-06-25 00:53:00,
2017-06-24 20:58:00,84.0,77.2,30.09,East,94,0.0,7.0,80,0.00,,---,0.00,VWS V14.01,2017-06-25 00:58:00,
2017-06-24 21:04:00,83.8,77.0,30.09,East,91,0.0,7.0,80,0.00,,---,0.00,VWS V14.01,2017-06-25 01:04:00,
2017-06-24 21:09:00,83.8,77.0,30.09,East,94,4.0,4.0,80,0.00,,---,0.00,VWS V14.01,2017-06-25 01:09:00,
2017-06-24 21:14:00,83.6,77.2,30.09,East,95,0.0,5.0,81,0.00,,---,0.00,VWS V14.01,2017-06-25 01:14:00,
2017-06-24 21:19:00,83.6,77.2,30.09,East,95,0.0,5.0,81,0.00,,---,0.00,VWS V14.01,2017-06-25 01:19:00,
2017-06-24 21:24:00,83.4,77.0,30.09,East,93,3.0,7.0,81,0.00,,---,0.00,VWS V14.01,2017-06-25 01:24:00,
2017-06-24 21:29:00,83.4,77.3,30.09,East,95,0.0,7.0,82,0.00,,---,0.00,VWS V14.01,2017-06-25 01:29:00,
2017-06-24 21:34:00,83.4,77.3,30.09,East,96,3.0,7.0,82,0.00,,---,0.00,VWS V14.01,2017-06-25 01:34:00,
2017-06-24 21:39:00,83.2,77.5,30.09,East,92,0.0,3.0,83,0.00,,---,0.00,VWS V14.01,2017-06-25 01:39:00,
2017-06-24 21:44:00,83.2,77.5,30.09,East,95,3.0,4.0,83,0.00,,---,0.00,VWS V14.01,2017-06-25 01:44:00,
2017-06-24 21:49:00,83.2,77.5,30.09,East,94,0.0,4.0,83,0.00,,---,0.00,VWS V14.01,2017-06-25 01:49:00,
2017-06-24 21:54:00,83.0,77.3,30.09,East,96,0.0,6.0,83,0.00,,---,0.00,VWS V14.01,2017-06-25 01:54:00,
2017-06-24 22:00:00,83.0,77.3,30.09,East,85,0.0,6.0,83,0.00,,---,0.00,VWS V14.01,2017-06-25 02:00:00,
2017-06-24 22:05:00,83.0,77.3,30.09,East,85,0.0,0.0,83,0.00,,---,0.00,VWS V14.01,2017-06-25 02:05:00,
2017-06-24 22:10:00,83.0,77.7,30.09,ENE,76,7.0,7.0,84,0.00,,---,0.00,VWS V14.01,2017-06-25 02:10:00,
2017-06-24 22:15:00,82.8,77.5,30.09,ENE,75,0.0,7.0,84,0.00,,---,0.00,VWS V14.01,2017-06-25 02:15:00,
2017-06-24 22:20:00,82.8,77.5,30.10,ENE,75,0.0,7.0,84,0.00,,---,0.00,VWS V14.01,2017-06-25 02:20:00,
2017-06-24 22:25:00,82.8,77.5,30.10,ENE,75,0.0,7.0,84,0.00,,---,0.00,VWS V14.01,2017-06-25 02:25:00,